Weather History for Morganton, NC

Change the Weather History Date:

Saturday, November 23, 2013

  Actual Average (KHKY) Record (KHKY)
Temperature  
Mean Temperature 48 °F -  
Max Temperature 57 °F 56 °F 73 °F (1973)
Min Temperature 38 °F 35 °F 17 °F (1970)
Degree Days  
Heating Degree Days 17    
Moisture  
Dew Point 37 °F    
Average Humidity 65    
Maximum Humidity 100    
Minimum Humidity 31    
Precipitation  
Precipitation 0.00 in - - ()
Sea Level Pressure  
Sea Level Pressure 30.18 in    
Wind  
Wind Speed 5 mph (NNW)    
Max Wind Speed 21 mph    
Max Gust Speed 26 mph    
Visibility 8 miles    
Events Fog    
Averages and records for this station are not official NWS values.
T = Trace of Precipitation, MM = Missing Value Source: NWS Daily Summary

Daily Weather History Graph

Daily Weather History Graph

Search for Another Location

Airport:

Trip Planner

Search our weather history database for the weather conditions in past years. The results will help you decide how hot, cold, wet, or windy it might be!

Date:

Astronomy

Nov. 23, 2013 Rise Set
Actual Time 7:10 AM EST 5:14 PM EST
Civil Twilight 6:43 AM EST 5:42 PM EST
Nautical Twilight 6:11 AM EST 6:13 PM EST
Astronomical Twilight 5:41 AM EST 6:44 PM EST
Moon 10:37 PM EST (11/23) 11:30 AM EST (11/23)
Length of Visible Light 10h 59m
Length of Day
10h 04m
Waning Gibbous, 70% of the Moon is Illuminated
Nov 23
Waning Gibbous
Nov 25
Last Quarter
Dec 2
New
Dec 9
First Quarter
Dec 17
Full

Hourly Weather History & Observations

Time (EST) Temp. Windchill Dew Point Humidity Pressure Visibility Wind Dir Wind Speed Gust Speed Precip Events Conditions
12:15 AM 54.9 °F - 54.9 °F 100% 30.16 in 1.2 mi Calm Calm - N/A   Overcast
12:35 AM 55.9 °F - 55.9 °F 100% 30.16 in 7.0 mi Calm Calm - N/A   Overcast
12:55 AM 55.8 °F - 55.8 °F 100% 30.17 in 7.0 mi West 3.5 mph - N/A   Overcast
1:15 AM 55.9 °F - 55.9 °F 100% 30.16 in 7.0 mi WNW 3.5 mph - N/A   Overcast
1:35 AM 55.0 °F - 55.0 °F 100% 30.16 in 5.0 mi Calm Calm - N/A   Overcast
1:55 AM 54.1 °F - 54.1 °F 100% 30.16 in 2.5 mi NNW 3.5 mph - N/A   Scattered Clouds
2:15 AM 54.5 °F - 54.5 °F 100% 30.16 in 0.8 mi Calm Calm - N/A   Overcast
2:35 AM 52.7 °F - 52.7 °F 100% 30.17 in 0.5 mi Calm Calm - N/A Fog Fog
2:55 AM 52.0 °F - 52.0 °F 100% 30.16 in 0.2 mi Calm Calm - N/A Fog Fog
3:15 AM 51.3 °F - 51.3 °F 100% 30.16 in 0.2 mi Calm Calm - N/A Fog Fog
3:35 AM 49.6 °F - 49.6 °F 100% 30.15 in 1.5 mi Calm Calm - N/A   Mostly Cloudy
3:55 AM 49.6 °F - 49.6 °F 100% 30.14 in 0.5 mi Calm Calm - N/A Fog Fog
4:15 AM 48.2 °F - 48.2 °F 100% 30.14 in 0.2 mi Calm Calm - N/A Fog Fog
4:35 AM 46.4 °F - 46.4 °F 100% 30.14 in 0.5 mi Calm Calm - N/A Fog Fog
4:55 AM 45.5 °F - 45.5 °F 100% 30.14 in 0.5 mi Calm Calm - N/A Fog Fog
5:15 AM 47.8 °F - 47.8 °F 100% 30.14 in 3.0 mi NNW 4.6 mph - N/A   Clear
5:35 AM 49.5 °F - 49.5 °F 100% 30.15 in 3.0 mi NNW 5.8 mph - N/A   Clear
5:55 AM 48.7 °F - 48.7 °F 100% 30.15 in 0.8 mi Calm Calm - N/A   Scattered Clouds
6:15 AM 46.4 °F - 46.4 °F 100% 30.15 in 1.2 mi Calm Calm - N/A   Mist
6:35 AM 44.8 °F - 44.8 °F 100% 30.14 in 1.5 mi Calm Calm - N/A   Mist
6:55 AM 45.5 °F - 45.5 °F 100% 30.15 in 10.0 mi Calm Calm - N/A   Clear
7:15 AM 45.3 °F - 45.3 °F 100% 30.16 in 5.0 mi Calm Calm - N/A   Mostly Cloudy
7:35 AM 46.9 °F - 46.9 °F 100% 30.17 in 10.0 mi Calm Calm - N/A   Mostly Cloudy
7:55 AM 50.0 °F - 50.0 °F 100% 30.17 in 10.0 mi North 3.5 mph - N/A   Scattered Clouds
8:15 AM 51.3 °F - 51.3 °F 100% 30.18 in 10.0 mi North 5.8 mph - N/A   Clear
8:35 AM 51.8 °F - 49.1 °F 90% 30.19 in 10.0 mi North 4.6 mph - N/A   Scattered Clouds
8:55 AM 53.4 °F - 47.1 °F 79% 30.19 in 10.0 mi NNW 5.8 mph - N/A   Scattered Clouds
9:15 AM 54.9 °F - 44.2 °F 67% 30.20 in 10.0 mi NNW 8.1 mph - N/A   Scattered Clouds
9:35 AM 55.0 °F - 42.6 °F 63% 30.21 in 10.0 mi NNW 11.5 mph 18.4 mph N/A   Clear
9:55 AM 55.8 °F - 41.9 °F 60% 30.20 in 10.0 mi NNW 6.9 mph - N/A   Clear
10:15 AM 56.5 °F - 41.2 °F 57% 30.21 in 10.0 mi NNW 13.8 mph 20.7 mph N/A   Clear
10:35 AM 55.9 °F - 41.0 °F 57% 30.19 in 10.0 mi North 8.1 mph 16.1 mph N/A   Clear
10:55 AM 55.9 °F - 41.0 °F 57% 30.19 in 10.0 mi NW 12.7 mph 16.1 mph N/A   Clear
11:15 AM 55.4 °F - 40.3 °F 57% 30.19 in 10.0 mi NNW 12.7 mph 18.4 mph N/A   Clear
11:35 AM 57.2 °F - 40.5 °F 54% 30.19 in 10.0 mi NNW 12.7 mph 19.6 mph N/A   Clear
11:55 AM 57.7 °F - 39.9 °F 51% 30.19 in 10.0 mi NNW 11.5 mph 19.6 mph N/A   Mostly Cloudy
12:15 PM 56.3 °F - 39.4 °F 53% 30.18 in 10.0 mi North 8.1 mph 17.3 mph N/A   Overcast
12:35 PM 55.9 °F - 39.2 °F 53% 30.17 in 10.0 mi NNW 16.1 mph 19.6 mph N/A   Scattered Clouds
12:55 PM 55.9 °F - 37.6 °F 50% 30.16 in 10.0 mi NW 10.4 mph 16.1 mph N/A   Scattered Clouds
1:15 PM 56.8 °F - 36.9 °F 47% 30.15 in 10.0 mi NNW 12.7 mph 18.4 mph N/A   Mostly Cloudy
1:35 PM 55.0 °F - 33.8 °F 45% 30.14 in 10.0 mi NNW 13.8 mph 20.7 mph N/A   Mostly Cloudy
1:55 PM 53.8 °F - 32.0 °F 44% 30.15 in 10.0 mi North 13.8 mph 21.9 mph N/A   Scattered Clouds
2:15 PM 55.6 °F - 30.2 °F 38% 30.15 in 10.0 mi NNW 20.7 mph 25.3 mph N/A   Clear
2:35 PM 56.1 °F - 29.8 °F 37% 30.15 in 10.0 mi NW 13.8 mph 23.0 mph N/A   Clear
2:55 PM 55.9 °F - 28.8 °F 35% 30.16 in 10.0 mi NW 12.7 mph 21.9 mph N/A   Clear
3:15 PM 55.9 °F - 29.3 °F 36% 30.16 in 10.0 mi NNW 10.4 mph 17.3 mph N/A   Clear
3:35 PM 55.0 °F - 29.3 °F 37% 30.15 in 10.0 mi NNW 15.0 mph - N/A   Clear
3:55 PM 54.5 °F - 28.4 °F 37% 30.16 in 10.0 mi NNW 15.0 mph 19.6 mph N/A   Clear
4:15 PM 52.7 °F - 26.8 °F 37% 30.16 in 10.0 mi NNW 12.7 mph - N/A   Clear
4:35 PM 52.3 °F - 26.8 °F 37% 30.17 in 10.0 mi NNW 16.1 mph 23.0 mph N/A   Clear
4:55 PM 51.4 °F - 27.0 °F 39% 30.17 in 10.0 mi NW 15.0 mph 23.0 mph N/A   Clear
5:15 PM 50.9 °F - 28.4 °F 42% 30.18 in 10.0 mi NW 15.0 mph 25.3 mph N/A   Clear
5:35 PM 50.2 °F - 29.3 °F 45% 30.18 in 10.0 mi NNW 11.5 mph 20.7 mph N/A   Clear
5:55 PM 49.5 °F - 28.4 °F 44% 30.18 in 10.0 mi NW 8.1 mph - N/A   Clear
6:15 PM 49.1 °F - 27.5 °F 43% 30.19 in 10.0 mi NW 6.9 mph - N/A   Clear
6:35 PM 47.5 °F - 28.4 °F 48% 30.20 in 10.0 mi NNW 5.8 mph - N/A   Clear
6:55 PM 47.3 °F - 27.3 °F 46% 30.20 in 10.0 mi NNW 4.6 mph - N/A   Clear
7:15 PM 46.8 °F - 24.4 °F 42% 30.20 in 10.0 mi NW 6.9 mph - N/A   Clear
7:35 PM 46.2 °F 43.3 °F 22.5 °F 39% 30.20 in 10.0 mi NNW 5.8 mph - N/A   Clear
7:55 PM 45.7 °F 41.0 °F 19.2 °F 35% 30.20 in 10.0 mi NNW 9.2 mph 21.9 mph N/A   Clear
8:15 PM 44.6 °F 37.2 °F 18.7 °F 36% 30.20 in 10.0 mi NNW 17.3 mph - N/A   Clear
8:35 PM 44.2 °F 37.6 °F 15.6 °F 32% 30.21 in 10.0 mi NNW 13.8 mph 23.0 mph N/A   Clear
8:55 PM 43.5 °F 39.4 °F 14.7 °F 31% 30.22 in 10.0 mi NNW 6.9 mph 18.4 mph N/A   Clear
9:15 PM 42.6 °F 38.4 °F 19.8 °F 40% 30.22 in 10.0 mi NNW 6.9 mph 19.6 mph N/A   Clear
9:35 PM 41.9 °F 36.3 °F 22.1 °F 45% 30.22 in 10.0 mi NNW 9.2 mph - N/A   Clear
9:55 PM 41.9 °F 35.4 °F 22.8 °F 47% 30.23 in 10.0 mi NNW 11.5 mph - N/A   Clear
10:15 PM 41.5 °F 33.5 °F 21.9 °F 46% 30.23 in 10.0 mi NW 16.1 mph 23.0 mph N/A   Clear
10:35 PM 40.8 °F 33.3 °F 21.4 °F 46% 30.23 in 10.0 mi NNW 13.8 mph 21.9 mph N/A   Clear
10:55 PM 40.1 °F 31.3 °F 20.3 °F 45% 30.25 in 10.0 mi NW 17.3 mph 26.5 mph N/A   Clear
11:15 PM 39.4 °F 30.7 °F 19.6 °F 45% 30.26 in 10.0 mi NW 16.1 mph 24.2 mph N/A   Clear
11:35 PM 39.2 °F 29.6 °F 18.3 °F 43% 30.27 in 10.0 mi NNW 19.6 mph 25.3 mph N/A   Clear
11:55 PM 38.3 °F 29.3 °F 17.1 °F 42% 30.27 in 10.0 mi NW 16.1 mph 24.2 mph N/A   Clear